| time (UTC) | temp F | wind direction | speed knots | gust knots | rain 1hr in | rain 24hr in | rain mn in | humidity % | barometer mb |
| 20260507060844 | 54 | 291 | 2.6 | 3.5 | 0.00 | 0.00 | 0.00 | 90 | 1007.0 |
| 20260507060346 | 54 | 298 | 1.7 | 1.7 | 0.00 | 0.00 | 0.00 | 89 | 1007.0 |
| 20260507055843 | 54 | 292 | 2.6 | 2.6 | 0.00 | 0.00 | 0.00 | 89 | 1007.0 |
| 20260507055344 | 55 | 258 | 2.6 | 2.6 | 0.00 | 0.00 | 0.00 | 89 | 1007.0 |
| 20260507054845 | 55 | 243 | 2.6 | 3.5 | 0.00 | 0.00 | 0.00 | 90 | 1007.0 |
| 20260507054345 | 55 | 263 | 2.6 | 2.6 | 0.00 | 0.00 | 0.00 | 91 | 1007.0 |
| 20260507053846 | 55 | 285 | 0.9 | 2.6 | 0.00 | 0.00 | 0.00 | 92 | 1007.0 |
| 20260507053343 | 55 | 283 | 0.9 | 1.7 | 0.00 | 0.00 | 0.00 | 93 | 1007.0 |
| 20260507052844 | 55 | 233 | 1.7 | 2.6 | 0.00 | 0.00 | 0.00 | 94 | 1007.0 |
| 20260507052345 | 55 | 222 | 1.7 | 1.7 | 0.00 | 0.00 | 0.00 | 94 | 1007.0 |
| 20260507051844 | 56 | 262 | 1.7 | 1.7 | 0.00 | 0.00 | 0.00 | 94 | 1007.0 |
| 20260507051343 | 56 | 197 | 1.7 | 1.7 | 0.00 | 0.00 | 0.00 | 94 | 1007.0 |
| 20260507050844 | 56 | 172 | 0.0 | 0.0 | 0.00 | 0.00 | 0.00 | 94 | 1008.0 |
| 20260507050346 | 56 | 251 | 0.9 | 1.7 | 0.00 | 0.00 | 0.00 | 94 | 1008.0 |
| 20260507045845 | 56 | 247 | 1.7 | 1.7 | 0.00 | 0.00 | 0.00 | 94 | 1007.0 |
| 20260507045352 | 56 | 260 | 0.0 | 0.0 | 0.00 | 0.00 | 0.00 | 93 | 1007.0 |
| 20260507044844 | 56 | 251 | 0.0 | 0.9 | 0.00 | 0.00 | 0.00 | 94 | 1007.0 |
| 20260507044343 | 56 | 289 | 1.7 | 2.6 | 0.00 | 0.00 | 0.00 | 94 | 1007.0 |
| 20260507043843 | 56 | 98 | 0.9 | 1.7 | 0.00 | 0.00 | 0.00 | 94 | 1007.0 |
| 20260507043343 | 56 | 280 | 0.0 | 0.0 | 0.00 | 0.00 | 0.00 | 93 | 1007.0 |
| 20260507042844 | 56 | 311 | 1.7 | 2.6 | 0.00 | 0.00 | 0.00 | 93 | 1007.0 |
| 20260507042343 | 57 | 158 | 0.0 | 0.0 | 0.00 | 0.00 | 0.00 | 93 | 1007.0 |
| 20260507041844 | 57 | 223 | 1.7 | 1.7 | 0.00 | 0.00 | 0.00 | 93 | 1007.0 |
| 20260507041344 | 57 | 234 | 0.9 | 2.6 | 0.00 | 0.00 | 0.00 | 93 | 1007.0 |
| 20260507040844 | 57 | 269 | 0.9 | 1.7 | 0.00 | 0.00 | 0.00 | 93 | 1007.0 |
| 20260507040348 | 57 | 264 | 1.7 | 2.6 | 0.00 | 0.00 | 0.00 | 93 | 1007.0 |
| 20260507035845 | 57 | 191 | 0.9 | 1.7 | 0.00 | 0.00 | 0.10 | 93 | 1007.0 |
| 20260507035348 | 58 | 273 | 0.9 | 1.7 | 0.00 | 0.00 | 0.10 | 93 | 1007.0 |
| 20260507034845 | 58 | 243 | 1.7 | 4.3 | 0.00 | 0.00 | 0.10 | 93 | 1007.0 |
| 20260507034346 | 58 | 262 | 2.6 | 5.2 | 0.00 | 0.00 | 0.10 | 95 | 1007.0 |
| 20260507033843 | 58 | 209 | 6.1 | 7.8 | 0.00 | 0.00 | 0.10 | 98 | 1007.0 |
| 20260507033343 | 58 | 216 | 0.0 | 0.9 | 0.00 | 0.00 | 0.10 | 100 | 1007.0 |
| 20260507032844 | 58 | 125 | 0.9 | 1.7 | 0.00 | 0.00 | 0.10 | 99 | 1007.0 |
| 20260507032343 | 58 | 0 | 0.0 | 0.0 | 0.00 | 0.00 | 0.10 | 100 | 1007.0 |
| 20260507031844 | 58 | 304 | 1.7 | 2.6 | 0.00 | 0.00 | 0.10 | 100 | 1007.0 |
| 20260507031345 | 58 | 303 | 0.9 | 1.7 | 0.00 | 0.00 | 0.10 | 100 | 1007.0 |
| 20260507030845 | 58 | 78 | 0.9 | 0.9 | 0.00 | 0.00 | 0.10 | 100 | 1007.0 |
| 20260507030346 | 58 | 311 | 0.0 | 0.9 | 0.00 | 0.00 | 0.10 | 100 | 1007.0 |
| 20260507025845 | 58 | 92 | 0.9 | 1.7 | 0.00 | 0.00 | 0.10 | 100 | 1007.0 |
| 20260507025345 | 58 | 56 | 0.0 | 0.9 | 0.00 | 0.00 | 0.10 | 100 | 1007.0 |
| 20260507024844 | 58 | 0 | 0.0 | 0.0 | 0.00 | 0.00 | 0.10 | 100 | 1007.0 |
| 20260507024343 | 58 | 294 | 0.9 | 2.6 | 0.00 | 0.00 | 0.10 | 100 | 1007.0 |
| 20260507023845 | 58 | 101 | 0.0 | 0.0 | 0.00 | 0.00 | 0.10 | 100 | 1007.0 |
| 20260507023345 | 58 | 222 | 0.9 | 1.7 | 0.00 | 0.00 | 0.10 | 100 | 1007.0 |
| 20260507022846 | 58 | 39 | 0.9 | 1.7 | 0.00 | 0.00 | 0.10 | 100 | 1007.0 |
| 20260507022345 | 58 | 159 | 1.7 | 1.7 | 0.00 | 0.00 | 0.10 | 100 | 1007.0 |
| 20260507021845 | 58 | 205 | 0.0 | 0.9 | 0.00 | 0.00 | 0.10 | 100 | 1007.0 |
| 20260507021343 | 58 | 87 | 0.9 | 1.7 | 0.00 | 0.00 | 0.10 | 100 | 1007.0 |
| 20260507020845 | 58 | 95 | 0.0 | 0.9 | 0.00 | 0.00 | 0.10 | 100 | 1007.0 |
| 20260507020344 | 58 | 0 | 0.0 | 0.0 | 0.00 | 0.00 | 0.10 | 100 | 1007.0 |
| 20260507015845 | 58 | 124 | 3.5 | 4.3 | 0.00 | 0.00 | 0.10 | 99 | 1007.0 |
| 20260507015345 | 58 | 177 | 0.0 | 0.0 | 0.00 | 0.00 | 0.10 | 99 | 1007.0 |
| 20260507014845 | 57 | 214 | 1.7 | 2.6 | 0.00 | 0.00 | 0.10 | 99 | 1007.0 |
| 20260507014345 | 57 | 223 | 0.9 | 1.7 | 0.00 | 0.00 | 0.10 | 99 | 1007.0 |
| 20260507013845 | 57 | 134 | 0.0 | 0.9 | 0.00 | 0.00 | 0.10 | 100 | 1007.0 |
| 20260507013346 | 57 | 104 | 1.7 | 1.7 | 0.00 | 0.00 | 0.10 | 100 | 1007.0 |
| 20260507012852 | 57 | 205 | 1.7 | 2.6 | 0.00 | 0.00 | 0.10 | 100 | 1007.0 |
| 20260507012344 | 57 | 140 | 1.7 | 2.6 | 0.00 | 0.00 | 0.10 | 100 | 1007.0 |
| 20260507011843 | 57 | 187 | 1.7 | 2.6 | 0.00 | 0.00 | 0.10 | 100 | 1007.0 |
| 20260507011345 | 57 | 122 | 0.9 | 1.7 | 0.00 | 0.00 | 0.10 | 100 | 1007.0 |
| 20260507010845 | 57 | 124 | 0.9 | 1.7 | 0.00 | 0.00 | 0.10 | 100 | 1007.0 |
| 20260507010346 | 57 | 68 | 1.7 | 1.7 | 0.00 | 0.00 | 0.10 | 100 | 1007.0 |
| 20260507005843 | 57 | 128 | 1.7 | 1.7 | 0.00 | 0.00 | 0.10 | 100 | 1007.0 |
| 20260507005347 | 57 | 127 | 0.9 | 1.7 | 0.00 | 0.00 | 0.10 | 100 | 1007.0 |
| 20260507004845 | 57 | 153 | 0.0 | 0.9 | 0.00 | 0.00 | 0.10 | 100 | 1007.0 |
| 20260507004345 | 57 | 234 | 1.7 | 2.6 | 0.00 | 0.00 | 0.10 | 100 | 1007.0 |
| 20260507003844 | 57 | 217 | 0.9 | 1.7 | 0.00 | 0.00 | 0.10 | 100 | 1007.0 |
| 20260507003346 | 57 | 284 | 1.7 | 3.5 | 0.00 | 0.00 | 0.10 | 100 | 1007.0 |
| 20260507002845 | 57 | 164 | 4.3 | 6.1 | 0.00 | 0.00 | 0.10 | 100 | 1007.0 |
| 20260507002345 | 57 | 230 | 1.7 | 2.6 | 0.00 | 0.00 | 0.10 | 100 | 1007.0 |
| 20260507001845 | 57 | 90 | 0.9 | 2.6 | 0.00 | 0.00 | 0.10 | 100 | 1007.0 |
| 20260507001343 | 57 | 167 | 1.7 | 2.6 | 0.00 | 0.00 | 0.10 | 100 | 1007.0 |
| 20260507000845 | 57 | 119 | 0.0 | 0.0 | 0.00 | 0.00 | 0.10 | 99 | 1007.0 |
| 20260507000345 | 57 | 219 | 1.7 | 3.5 | 0.00 | 0.00 | 0.10 | 99 | 1007.0 |
| 20260506235846 | 57 | 21 | 0.9 | 1.7 | 0.00 | 0.00 | 0.10 | 99 | 1007.0 |
| 20260506235345 | 57 | 154 | 1.7 | 2.6 | 0.00 | 0.00 | 0.10 | 99 | 1007.0 |
| 20260506234845 | 57 | 93 | 1.7 | 2.6 | 0.00 | 0.00 | 0.10 | 99 | 1007.0 |
| 20260506234345 | 57 | 171 | 1.7 | 2.6 | 0.00 | 0.00 | 0.10 | 99 | 1007.0 |
| 20260506233845 | 57 | 125 | 1.7 | 2.6 | 0.00 | 0.00 | 0.10 | 99 | 1007.0 |
| 20260506233346 | 57 | 138 | 0.9 | 1.7 | 0.00 | 0.00 | 0.10 | 99 | 1007.0 |
| 20260506232844 | 57 | 224 | 2.6 | 3.5 | 0.00 | 0.00 | 0.10 | 99 | 1007.0 |
| 20260506232343 | 57 | 40 | 1.7 | 1.7 | 0.00 | 0.00 | 0.10 | 99 | 1007.0 |
| 20260506231843 | 57 | 153 | 1.7 | 2.6 | 0.00 | 0.00 | 0.10 | 99 | 1007.0 |
| 20260506231344 | 57 | 338 | 0.9 | 2.6 | 0.00 | 0.00 | 0.10 | 99 | 1007.0 |
| 20260506230844 | 57 | 148 | 1.7 | 2.6 | 0.00 | 0.00 | 0.10 | 99 | 1007.0 |
| 20260506230346 | 57 | 62 | 1.7 | 1.7 | 0.00 | 0.00 | 0.10 | 99 | 1007.0 |
| 20260506225843 | 57 | 120 | 1.7 | 1.7 | 0.00 | 0.00 | 0.10 | 99 | 1007.0 |
| 20260506225345 | 58 | 112 | 0.9 | 2.6 | 0.00 | 0.00 | 0.10 | 99 | 1007.0 |
| 20260506224845 | 58 | 275 | 1.7 | 1.7 | 0.00 | 0.00 | 0.10 | 99 | 1007.0 |
| 20260506224344 | 58 | 91 | 1.7 | 1.7 | 0.00 | 0.00 | 0.10 | 99 | 1007.0 |
| 20260506223844 | 58 | 47 | 0.9 | 3.5 | 0.00 | 0.00 | 0.10 | 99 | 1007.0 |
| 20260506223346 | 58 | 0 | 0.0 | 0.0 | 0.00 | 0.00 | 0.10 | 99 | 1007.0 |
| 20260506222844 | 58 | 98 | 0.9 | 1.7 | 0.00 | 0.00 | 0.10 | 99 | 1007.0 |
| 20260506222346 | 58 | 34 | 0.9 | 1.7 | 0.00 | 0.00 | 0.10 | 99 | 1007.0 |
| 20260506221843 | 58 | 101 | 3.5 | 3.5 | 0.00 | 0.00 | 0.10 | 99 | 1007.0 |
| 20260506221343 | 57 | 340 | 0.0 | 0.9 | 0.00 | 0.00 | 0.10 | 99 | 1007.0 |
| 20260506220845 | 57 | 225 | 1.7 | 3.5 | 0.00 | 0.00 | 0.10 | 99 | 1007.0 |
| 20260506220345 | 57 | 94 | 2.6 | 3.5 | 0.00 | 0.00 | 0.10 | 99 | 1007.0 |
| 20260506215845 | 58 | 84 | 4.3 | 7.0 | 0.00 | 0.00 | 0.10 | 99 | 1007.0 |
| 20260506215343 | 57 | 91 | 1.7 | 1.7 | 0.00 | 0.00 | 0.10 | 99 | 1007.0 |
| 20260506214845 | 57 | 180 | 0.9 | 1.7 | 0.00 | 0.00 | 0.10 | 99 | 1007.0 |
| 20260506214343 | 58 | 252 | 0.9 | 1.7 | 0.00 | 0.00 | 0.10 | 99 | 1007.0 |
| 20260506213845 | 58 | 82 | 1.7 | 2.6 | 0.00 | 0.00 | 0.10 | 99 | 1007.0 |
| 20260506213345 | 58 | 121 | 2.6 | 3.5 | 0.00 | 0.00 | 0.10 | 99 | 1007.0 |
| 20260506212844 | 58 | 105 | 1.7 | 1.7 | 0.00 | 0.00 | 0.10 | 98 | 1007.0 |
| 20260506212344 | 58 | 0 | 0.0 | 0.0 | 0.00 | 0.00 | 0.10 | 98 | 1007.0 |
| 20260506211845 | 58 | 211 | 1.7 | 1.7 | 0.00 | 0.00 | 0.10 | 98 | 1007.0 |
| 20260506211345 | 58 | 126 | 1.7 | 2.6 | 0.00 | 0.00 | 0.10 | 98 | 1007.0 |
| 20260506210846 | 58 | 90 | 0.0 | 1.7 | 0.00 | 0.00 | 0.10 | 98 | 1007.0 |
| 20260506210345 | 58 | 231 | 0.9 | 1.7 | 0.00 | 0.00 | 0.10 | 98 | 1007.0 |
| 20260506205357 | 58 | 103 | 1.7 | 2.6 | 0.00 | 0.00 | 0.10 | 98 | 1007.0 |
| 20260506204847 | 58 | 3 | 0.9 | 1.7 | 0.00 | 0.00 | 0.10 | 98 | 1008.0 |
| 20260506204347 | 58 | 209 | 0.0 | 0.9 | 0.00 | 0.00 | 0.10 | 98 | 1007.0 |
| 20260506203845 | 58 | 137 | 1.7 | 1.7 | 0.00 | 0.00 | 0.10 | 98 | 1007.0 |
| 20260506203346 | 58 | 71 | 2.6 | 3.5 | 0.00 | 0.00 | 0.10 | 97 | 1007.0 |
| 20260506202845 | 58 | 88 | 0.9 | 1.7 | 0.00 | 0.00 | 0.10 | 97 | 1007.0 |
| 20260506202345 | 58 | 283 | 0.9 | 3.5 | 0.00 | 0.00 | 0.10 | 97 | 1008.0 |
| 20260506201847 | 58 | 85 | 3.5 | 4.3 | 0.01 | 0.00 | 0.10 | 97 | 1008.0 |
| 20260506201348 | 58 | 42 | 0.9 | 1.7 | 0.00 | 0.00 | 0.10 | 97 | 1008.0 |
| 20260506200846 | 58 | 228 | 1.7 | 4.3 | 0.01 | 0.00 | 0.09 | 97 | 1008.0 |
| 20260506200346 | 58 | 276 | 0.0 | 0.9 | 0.01 | 0.00 | 0.09 | 97 | 1008.0 |
| 20260506195845 | 58 | 82 | 1.7 | 2.6 | 0.03 | 0.00 | 0.09 | 97 | 1008.0 |
| 20260506195343 | 58 | 119 | 2.6 | 5.2 | 0.03 | 0.00 | 0.09 | 97 | 1008.0 |
| 20260506194845 | 58 | 149 | 1.7 | 3.5 | 0.00 | 0.00 | 0.09 | 96 | 1008.0 |
| 20260506194346 | 58 | 97 | 1.7 | 4.3 | 0.00 | 0.00 | 0.09 | 96 | 1008.0 |
| 20260506193845 | 58 | 47 | 3.5 | 4.3 | 0.00 | 0.00 | 0.09 | 96 | 1008.0 |
| 20260506193346 | 58 | 226 | 1.7 | 3.5 | 0.02 | 0.00 | 0.09 | 96 | 1008.0 |
| 20260506192843 | 58 | 136 | 1.7 | 3.5 | 0.01 | 0.00 | 0.09 | 96 | 1008.0 |
| 20260506192348 | 58 | 157 | 2.6 | 5.2 | 0.01 | 0.00 | 0.09 | 95 | 1008.0 |
| 20260506191357 | 58 | 206 | 1.7 | 3.5 | 0.07 | 0.00 | 0.08 | 94 | 1008.0 |
| 20260506190845 | 58 | 202 | 1.7 | 2.6 | 0.06 | 0.00 | 0.07 | 94 | 1008.0 |
| 20260506190347 | 58 | 166 | 0.9 | 1.7 | 0.04 | 0.00 | 0.06 | 94 | 1008.0 |
| 20260506185844 | 59 | 85 | 2.6 | 6.1 | 0.10 | 0.00 | 0.06 | 93 | 1008.0 |
| 20260506185347 | 59 | 115 | 0.9 | 1.7 | 0.06 | 0.00 | 0.05 | 92 | 1008.0 |
| 20260506184845 | 59 | 127 | 1.7 | 3.5 | 0.05 | 0.00 | 0.05 | 92 | 1008.0 |
| 20260506184347 | 59 | 119 | 0.9 | 2.6 | 0.04 | 0.00 | 0.04 | 91 | 1008.0 |
| 20260506183846 | 60 | 126 | 2.6 | 4.3 | 0.04 | 0.00 | 0.04 | 90 | 1008.0 |
| 20260506183346 | 60 | 176 | 0.9 | 2.6 | 0.02 | 0.00 | 0.03 | 89 | 1008.0 |
| 20260506182847 | 60 | 98 | 1.7 | 4.3 | 0.04 | 0.00 | 0.03 | 88 | 1009.0 |
| 20260506182347 | 61 | 93 | 1.7 | 5.2 | 0.05 | 0.00 | 0.03 | 87 | 1009.0 |
| 20260506181845 | 61 | 173 | 0.9 | 1.7 | 0.08 | 0.00 | 0.02 | 85 | 1009.0 |
| 20260506181345 | 62 | 298 | 1.7 | 2.6 | 0.03 | 0.00 | 0.02 | 85 | 1009.0 |
| 20260506180846 | 62 | 172 | 2.6 | 4.3 | 0.06 | 0.00 | 0.01 | 81 | 1009.0 |
| 20260506180343 | 63 | 155 | 1.7 | 2.6 | 0.06 | 0.00 | 0.01 | 79 | 1009.0 |
| 20260506175846 | 64 | 144 | 2.6 | 5.2 | 0.01 | 0.00 | 0.00 | 76 | 1009.0 |
| 20260506175345 | 64 | 161 | 2.6 | 4.3 | 0.05 | 0.00 | 0.00 | 75 | 1009.0 |
| 20260506174845 | 64 | 121 | 1.7 | 3.5 | 0.00 | 0.00 | 0.00 | 73 | 1009.0 |
| 20260506174346 | 65 | 212 | 3.5 | 7.0 | 0.00 | 0.00 | 0.00 | 72 | 1009.0 |
| 20260506173846 | 65 | 108 | 1.7 | 3.5 | 0.00 | 0.00 | 0.00 | 73 | 1009.0 |
| 20260506173345 | 65 | 121 | 4.3 | 7.0 | 0.00 | 0.00 | 0.00 | 71 | 1009.0 |
| 20260506172846 | 66 | 91 | 4.3 | 7.8 | 0.00 | 0.00 | 0.00 | 70 | 1009.0 |
| 20260506172345 | 66 | 163 | 2.6 | 4.3 | 0.00 | 0.00 | 0.00 | 69 | 1009.0 |
| 20260506171846 | 66 | 179 | 1.7 | 4.3 | 0.00 | 0.00 | 0.00 | 68 | 1009.0 |
| 20260506171345 | 67 | 202 | 2.6 | 5.2 | 0.00 | 0.00 | 0.00 | 67 | 1009.0 |
| 20260506170846 | 67 | 111 | 3.5 | 7.8 | 0.00 | 0.00 | 0.00 | 66 | 1009.0 |
| 20260506170346 | 68 | 69 | 2.6 | 5.2 | 0.00 | 0.00 | 0.00 | 66 | 1009.0 |
| 20260506165849 | 68 | 129 | 3.5 | 5.2 | 0.00 | 0.00 | 0.00 | 63 | 1009.0 |
| 20260506165345 | 68 | 229 | 3.5 | 5.2 | 0.00 | 0.00 | 0.00 | 65 | 1009.0 |
| 20260506164845 | 68 | 190 | 3.5 | 6.1 | 0.00 | 0.00 | 0.00 | 65 | 1009.0 |
| 20260506164345 | 68 | 133 | 1.7 | 2.6 | 0.00 | 0.00 | 0.00 | 65 | 1009.0 |
| 20260506163849 | 68 | 150 | 2.6 | 3.5 | 0.00 | 0.00 | 0.00 | 64 | 1009.0 |
| 20260506163345 | 69 | 80 | 4.3 | 7.8 | 0.00 | 0.00 | 0.00 | 63 | 1009.0 |
| 20260506162846 | 69 | 73 | 4.3 | 7.8 | 0.00 | 0.00 | 0.00 | 62 | 1009.0 |
| 20260506162345 | 68 | 56 | 2.6 | 7.0 | 0.00 | 0.00 | 0.00 | 62 | 1009.0 |
| 20260506161845 | 68 | 199 | 5.2 | 8.7 | 0.00 | 0.00 | 0.00 | 63 | 1009.0 |
| 20260506161346 | 68 | 116 | 5.2 | 9.6 | 0.00 | 0.00 | 0.00 | 62 | 1010.0 |
| 20260506160844 | 69 | 93 | 3.5 | 6.1 | 0.00 | 0.00 | 0.00 | 63 | 1009.0 |
| 20260506160346 | 69 | 212 | 3.5 | 5.2 | 0.00 | 0.00 | 0.00 | 61 | 1010.0 |
| 20260506155845 | 69 | 188 | 2.6 | 4.3 | 0.00 | 0.00 | 0.00 | 61 | 1009.0 |
| 20260506155344 | 69 | 177 | 2.6 | 9.6 | 0.00 | 0.00 | 0.00 | 62 | 1010.0 |
| 20260506154845 | 69 | 189 | 4.3 | 7.0 | 0.00 | 0.00 | 0.00 | 62 | 1010.0 |
| 20260506154346 | 69 | 88 | 1.7 | 3.5 | 0.00 | 0.00 | 0.00 | 63 | 1010.0 |
| 20260506153843 | 69 | 86 | 3.5 | 6.1 | 0.00 | 0.00 | 0.00 | 62 | 1010.0 |
| 20260506153345 | 69 | 73 | 1.7 | 3.5 | 0.00 | 0.00 | 0.00 | 60 | 1010.0 |